Location: Ahstedt
(52.2048°N, 10.1060°E)
Time: 00:10:39
(UTC+00:00)

Cosmos 2084 Rocket - Pass Details

Date: 18 January 2026
Orbit: 541 x 571 km, 62.8° (Epoch: 17 February)

Event Time Altitude Azimuth Distance (km) Brightness Sun altitude
Exits shadow 05:50:31 21° 292° (WNW) 1,320 4.6 -13.0°
Maximum altitude 05:52:55 40° 233° (SW) 845 4.0 -12.7°
Drops below altitude 10° 05:56:52 10° 164° (SSE) 1,871 6.5 -12.1°
Sets 05:59:11 0° 157° (SSE) 2,766 7.6 -11.8°
